Flag for Brazil Weather past 2 weeks in Brasilia, Distrito Federal, Brazil

Now
68 °F

Passing clouds.


Feels Like: 68 °F
Forecast: 63 / 77 °F
Wind: 3 mph from East

Location: Brasilia Aeroporto

Current Time: May 6, 2015 at 9:38:01 PM

Latest Report: May 6, 2015 at 9:00 PM


Visibility: N/A

Pressure: 30.12 "Hg

Humidity: 100%

Dew point: 68 °F

Location of BrasiliaLocation

Historic Weather in Brasilia — Graph

°F

Brasilia temperature yesterday

Maximum temperature yesterday: 75 °F (at 10:00 AM)
Minimum temperature yesterday: 66 °F (at 12:00 AM)
Average temperature yesterday: 69 °F

Past Weeks' High & Low Weather Summary

 TemperatureHumidityPressure
High81 °F (Apr 22, 11:00 AM)100% (Apr 23, 4:00 AM)30.21 "Hg (Apr 23, 4:00 AM)
Low59 °F (May 1, 6:00 AM)48% (Apr 25, 1:00 PM)30.01 "Hg (Apr 22, 4:00 PM)
Average69 °F81%30.10 "Hg
* Reported Apr 21 8:00 PM — May 6 8:00 PM, Brasilia, Weather by CustomWeather, © 2015

Note: Actual official high and low records may vary slightly from our data, if they occured in-between our weather recording intervals... More about our weather records

Advertising

Brasilia weather history for previous 24 hours

 ConditionsComfort  
Time TempWeatherWind HumidityBarometerVisibility
8:00 PM
Wed, May 6
68 °FPassing clouds.3 mph94%30.09 "HgN/A
7:00 PM72 °FPassing clouds.5 mph83%30.09 "HgN/A
6:00 PM73 °FPassing clouds.2 mph78%30.07 "HgN/A
5:00 PM75 °FBroken clouds.5 mph74%30.07 "HgN/A
4:00 PM72 °FBroken clouds.7 mph78%30.04 "HgN/A
3:00 PM75 °FPartly sunny.2 mph74%30.07 "HgN/A
2:00 PM72 °FPartly sunny.2 mph78%30.09 "HgN/A
1:00 PM68 °FLight rain. Partly sunny.3 mph88%N/A4 mi
12:00 PM68 °FRain. Partly sunny.8 mph83%30.15 "Hg4 mi
11:00 AM73 °FBroken clouds.3 mph74%30.15 "HgN/A
10:00 AM73 °FBroken clouds.3 mph74%30.18 "HgN/A
9:00 AM68 °FPartly sunny.3 mph88%30.18 "HgN/A
8:00 AM68 °FPartly sunny.3 mph88%30.15 "HgN/A
7:00 AM66 °FPartly sunny.3 mph83%30.12 "HgN/A
6:00 AM66 °FPassing clouds.2 mph88%30.12 "HgN/A
5:00 AM66 °FPassing clouds.3 mph88%30.09 "HgN/A
4:00 AM66 °FPassing clouds.5 mph88%30.12 "HgN/A
3:00 AM66 °FPassing clouds.3 mph88%30.09 "HgN/A
2:00 AM66 °FPassing clouds.3 mph88%30.12 "HgN/A
1:00 AM66 °FPassing clouds.3 mph88%30.12 "HgN/A
12:00 AM66 °FPassing clouds.5 mph88%30.15 "HgN/A
11:00 PM
Tue, May 5
68 °FPassing clouds.3 mph83%30.15 "HgN/A
10:00 PM68 °FPassing clouds.2 mph83%30.12 "HgN/A
9:00 PM68 °FPassing clouds.3 mph94%30.12 "HgN/A
Weather by CustomWeather, © 2015

See weather overviewHow to use our weather pages